TimeCST,TemperatureF,Dew PointF,Humidity,Sea Level PressureIn,VisibilityMPH,Wind Direction,Wind SpeedMPH,Gust SpeedMPH,PrecipitationIn,Events,Conditions,WindDirDegrees,DateUTC
12:15 AM,32.2,29.8,91,30.36,10.0,Calm,Calm,-,N/A,,Overcast,0,2013-12-08 06:15:00
12:35 AM,32.5,30.2,91,30.34,10.0,Calm,Calm,-,N/A,Rain,Light Rain,0,2013-12-08 06:35:00
12:55 AM,32.4,29.8,90,30.34,10.0,Calm,Calm,-,N/A,,Overcast,0,2013-12-08 06:55:00
1:15 AM,32.5,30.0,90,30.33,10.0,Calm,Calm,-,N/A,,Overcast,0,2013-12-08 07:15:00
1:35 AM,32.9,30.0,89,30.33,10.0,Calm,Calm,-,N/A,,Overcast,0,2013-12-08 07:35:00
1:55 AM,32.4,30.2,92,30.32,10.0,Calm,Calm,-,N/A,Rain,Light Rain,0,2013-12-08 07:55:00
2:15 AM,32.9,30.4,90,30.32,10.0,Calm,Calm,-,N/A,,Overcast,0,2013-12-08 08:15:00
2:35 AM,32.7,30.4,91,30.30,10.0,Calm,Calm,-,N/A,,Overcast,0,2013-12-08 08:35:00
2:55 AM,32.5,30.2,91,30.29,10.0,Calm,Calm,-,N/A,,Overcast,0,2013-12-08 08:55:00
3:15 AM,32.9,30.7,92,30.28,10.0,Calm,Calm,-,N/A,,Overcast,0,2013-12-08 09:15:00
3:35 AM,32.9,30.6,91,30.27,10.0,Calm,Calm,-,N/A,,Overcast,0,2013-12-08 09:35:00
3:55 AM,33.1,30.9,92,30.26,10.0,Calm,Calm,-,N/A,,Drizzle,0,2013-12-08 09:55:00
4:15 AM,33.3,30.9,91,30.27,10.0,Calm,Calm,-,N/A,,Overcast,0,2013-12-08 10:15:00
4:35 AM,33.3,31.1,92,30.27,7.0,Calm,Calm,-,N/A,Rain,Rain,0,2013-12-08 10:35:00
4:55 AM,32.9,32.0,96,30.25,3.0,Calm,Calm,-,0.04,Rain,Light Rain,0,2013-12-08 10:55:00
5:15 AM,32.9,32.0,96,30.26,4.0,Calm,Calm,-,0.01,Rain,Light Rain,0,2013-12-08 11:15:00
5:35 AM,32.7,32.2,98,30.25,1.8,Calm,Calm,-,0.07,Snow,Light Snow,0,2013-12-08 11:35:00
5:55 AM,32.5,32.2,99,30.24,1.8,Calm,Calm,-,0.15,,Overcast,0,2013-12-08 11:55:00
6:15 AM,32.7,32.5,99,30.24,1.8,Calm,Calm,-,0.04,,Overcast,0,2013-12-08 12:15:00
6:35 AM,32.9,32.9,100,30.23,1.0,Calm,Calm,-,0.11,,Overcast,0,2013-12-08 12:35:00
6:55 AM,32.9,32.9,100,30.22,1.5,Calm,Calm,-,0.17,Rain,Heavy Rain,0,2013-12-08 12:55:00
7:15 AM,33.3,33.3,100,30.24,0.8,Calm,Calm,-,0.05,Rain,Rain,0,2013-12-08 13:15:00
7:35 AM,33.3,33.3,100,30.21,1.2,Calm,Calm,-,0.08,Rain,Light Rain,0,2013-12-08 13:35:00
7:55 AM,33.4,33.4,100,30.21,1.2,Calm,Calm,-,0.09,Rain,Heavy Rain,0,2013-12-08 13:55:00
8:15 AM,33.8,33.8,100,30.21,1.0,Calm,Calm,-,0.01,Rain,Heavy Rain,0,2013-12-08 14:15:00
8:35 AM,34.2,34.2,100,30.23,0.5,SE,3.5,-,0.09,Snow-Thunderstorm,Light Thunderstorms and Snow,140,2013-12-08 14:35:00
8:55 AM,34.3,34.3,100,30.23,2.5,Calm,Calm,-,0.12,Rain-Thunderstorm,Rain,0,2013-12-08 14:55:00
9:15 AM,34.7,34.7,100,30.21,2.0,Calm,Calm,-,0.01,Rain,Rain,0,2013-12-08 15:15:00
9:35 AM,35.1,35.1,100,30.20,1.0,Calm,Calm,-,0.04,Rain,Rain,0,2013-12-08 15:35:00
9:55 AM,35.2,35.2,100,30.21,0.5,Calm,Calm,-,0.21,Snow,Light Snow,0,2013-12-08 15:55:00
10:15 AM,35.6,35.6,100,30.21,0.5,Calm,Calm,-,0.15,Snow-Thunderstorm,Thunderstorms and Snow,0,2013-12-08 16:15:00
10:35 AM,36.0,36.0,100,30.21,1.0,Calm,Calm,-,0.27,Rain,Light Rain,0,2013-12-08 16:35:00
10:55 AM,36.5,36.5,100,30.20,3.0,Calm,Calm,-,0.30,Rain,Light Rain,0,2013-12-08 16:55:00
11:15 AM,37.0,37.0,100,30.20,4.0,Calm,Calm,-,N/A,,Drizzle,0,2013-12-08 17:15:00
11:35 AM,37.4,37.4,100,30.20,2.5,Calm,Calm,-,N/A,Rain,Rain,0,2013-12-08 17:35:00
11:55 AM,38.3,38.3,100,30.18,1.8,Calm,Calm,-,0.02,Rain,Rain,0,2013-12-08 17:55:00
12:15 PM,38.5,38.5,100,30.17,5.0,Calm,Calm,-,N/A,Rain,Rain,0,2013-12-08 18:15:00
12:35 PM,39.6,39.6,100,30.15,7.0,Calm,Calm,-,0.01,,Overcast,0,2013-12-08 18:35:00
12:55 PM,40.5,40.5,100,30.14,5.0,Calm,Calm,-,0.01,Rain,Rain,0,2013-12-08 18:55:00
1:15 PM,41.4,41.2,99,30.14,5.0,Calm,Calm,-,N/A,Rain,Rain,0,2013-12-08 19:15:00
1:35 PM,41.9,41.4,98,30.13,10.0,Calm,Calm,-,0.01,,Light Drizzle,0,2013-12-08 19:35:00
1:55 PM,42.8,41.4,95,30.12,10.0,Calm,Calm,-,0.01,,Overcast,0,2013-12-08 19:55:00
2:15 PM,42.8,41.0,93,30.12,10.0,SSE,3.5,-,N/A,,Overcast,150,2013-12-08 20:15:00
2:35 PM,42.8,41.2,94,30.12,10.0,SSE,3.5,-,N/A,,Overcast,160,2013-12-08 20:35:00
2:55 PM,43.0,41.2,93,30.12,10.0,South,4.6,-,N/A,,Light Drizzle,190,2013-12-08 20:55:00
3:15 PM,43.2,41.2,93,30.12,10.0,Calm,Calm,-,N/A,,Overcast,0,2013-12-08 21:15:00
3:35 PM,42.8,41.9,97,30.12,10.0,Calm,Calm,-,N/A,,Overcast,0,2013-12-08 21:35:00
3:55 PM,43.2,41.5,94,30.14,7.0,Calm,Calm,-,N/A,Rain,Rain,0,2013-12-08 21:55:00
4:15 PM,43.0,41.9,96,30.13,5.0,Calm,Calm,-,0.05,Rain,Rain,0,2013-12-08 22:15:00
4:35 PM,43.0,42.1,97,30.14,7.0,Calm,Calm,-,0.08,Rain,Rain,0,2013-12-08 22:35:00
4:55 PM,43.2,42.1,96,30.13,5.0,Calm,Calm,-,0.10,Rain,Rain,0,2013-12-08 22:55:00
5:15 PM,43.3,41.5,93,30.12,7.0,SSE,3.5,-,0.02,Rain,Rain,150,2013-12-08 23:15:00
5:35 PM,43.0,42.1,97,30.12,5.0,Calm,Calm,-,0.05,Rain,Light Rain,0,2013-12-08 23:35:00
5:55 PM,43.2,42.4,97,30.12,10.0,Calm,Calm,-,0.05,,Overcast,0,2013-12-08 23:55:00
6:15 PM,43.7,42.1,94,30.13,10.0,Calm,Calm,-,N/A,,Light Drizzle,0,2013-12-09 00:15:00
6:35 PM,43.5,42.4,96,30.14,5.0,Calm,Calm,-,0.04,Rain,Rain,0,2013-12-09 00:35:00
6:55 PM,43.5,42.8,97,30.12,4.0,Calm,Calm,-,0.08,Rain,Rain,0,2013-12-09 00:55:00
7:15 PM,43.5,42.4,96,30.12,7.0,Calm,Calm,-,0.02,Rain,Light Rain,0,2013-12-09 01:15:00
7:35 PM,43.2,42.8,99,30.13,10.0,Calm,Calm,-,0.03,Rain,Light Rain,0,2013-12-09 01:35:00
7:55 PM,43.0,43.0,100,30.14,7.0,Calm,Calm,-,0.05,Rain,Rain,0,2013-12-09 01:55:00
8:15 PM,43.0,43.0,100,30.13,4.0,East,3.5,-,0.01,Rain,Rain,100,2013-12-09 02:15:00
8:35 PM,43.5,43.2,99,30.10,4.0,East,4.6,-,0.06,Rain,Rain,80,2013-12-09 02:35:00
8:55 PM,43.7,43.0,97,30.10,10.0,Calm,Calm,-,0.08,Rain,Light Rain,0,2013-12-09 02:55:00
9:15 PM,44.1,42.8,95,30.09,10.0,SE,3.5,-,N/A,,Overcast,130,2013-12-09 03:15:00
9:35 PM,44.2,42.8,95,30.09,10.0,Calm,Calm,-,N/A,,Overcast,0,2013-12-09 03:35:00
9:55 PM,45.0,43.0,93,30.09,7.0,Calm,Calm,-,N/A,,Overcast,0,2013-12-09 03:55:00
10:15 PM,44.2,43.7,98,30.08,3.0,Calm,Calm,-,N/A,,Drizzle,0,2013-12-09 04:15:00
10:35 PM,44.2,43.7,98,30.08,3.0,SSE,3.5,-,N/A,,Drizzle,150,2013-12-09 04:35:00
10:55 PM,44.6,43.3,95,30.08,5.0,SSE,6.9,-,N/A,,Heavy Drizzle,160,2013-12-09 04:55:00
11:15 PM,44.2,43.7,98,30.07,3.0,SSE,3.5,-,0.07,Rain,Rain,150,2013-12-09 05:15:00
11:35 PM,45.1,43.9,95,30.08,5.0,WSW,3.5,-,0.08,Rain,Heavy Rain,250,2013-12-09 05:35:00
11:55 PM,44.2,44.1,99,30.05,3.0,Calm,Calm,-,0.12,Rain,Heavy Rain,0,2013-12-09 05:55:00